Погода в Выдрине

Россия / Челябинская область     54°29′00″N   59°50′01″E
темп.,
°C
ветер,
м/с
пор.,
м/с
влажн.,
%
обл.,
%
осадки,
мм/ч
давл.,
гПа
погр.,
м
27 февраля, сб
сб2723:00−26юз33935 0.0 102623
02:00−27ююз339679 0.0 102432
05:00−28ююз239967 0.0 102222
08:00−27ю2299100 0.0 101955
11:00−23ююв3598100 0.4 1017317
14:00−20ююв3697100 1.1 1013501
17:00−16с2296100 1.6 1011110
20:00−17с1198100 0.4 100923
28 февраля, вс
вс2823:00−14ссв0097100 1.3 100721
02:00−14всв0197100 0.5 100521
05:00−14ссв1297100 0.8 100421
08:00−13ссв2296100 0.3 100333
11:00−11св2395100 0.7 1003235
14:00−9св3494100 0.4 1002360
17:00−9св469499 0.8 1003407
20:00−11ссв489599 0.4 1005283
1 марта, пн
пн123:00−14ссв379697 0.5 1008161
02:00−16ссв349795 0.1 101093
05:00−17ссв239797 0.2 101286
08:00−17св2498100 0.4 1014185
11:00−16св2292100 0.8 1016267
14:00−14в1189100 0.3 1016320
17:00−14в1293100 0.4 1016222
20:00−16в119799 0.1 101820
2 марта, вт
вт223:00−18с009899 0.2 101820
02:00−20з1110089 0.1 101820
05:00−21з119981 0.1 101820
08:00−23зсз119558 0.0 101820
11:00−17зюз118729 0.0 101787
14:00−13ю22840 0.0 1015247
17:00−14ю22932 0.0 101341
20:00−18ююз22952 0.0 101320
3 марта, ср
ср323:00−19ююз229425 0.0 101320
02:00−17ююз238995 0.0 101223
05:00−14ююз359397 0.0 1011122
08:00−14юз3793100 0.1 1010232
11:00−12ююз4690100 0.1 1009285
14:00−9ююз4692100 0.0 1008323
17:00−8ю4793100 0.1 1007396
20:00−10ю2396100 0.3 100758